"Pseudo-MPEC" for Sar2766

Created 2024 Sep 6 5:22:35 UT using Find_Orb

Click here for an explanation of pseudo-MPECs

 
 Astrometry: 
     Sar2766* C2024 09 04.83359 21 01 12.51 +14 02 16.5    ~94LM 19.7 GVNEOCPK88
     Sar2766  C2024 09 04.83656 21 01 15.11 +14 02 56.9    ~94LM 19.9 GVNEOCPK88
     Sar2766  C2024 09 04.83953 21 01 17.78 +14 03 37.0    ~94LM 19.6 GVNEOCPK88
     Sar2766 KC2024 09 04.85725 21 01 33.40 +14 07 40.2    ~94LM 19.6 GVNEOCPK88
     Sar2766 KC2024 09 04.86091 21 01 36.66 +14 08 31.4    ~94LM 19.3 GVNEOCPK88
     Sar2766 KC2024 09 04.86458 21 01 39.89 +14 09 21.2    ~94LM 19.8 GVNEOCPK88
     Sar2766 1C2024 09 04.89871 21 02 11.21 +14 16 59.2    ~94Nq 20.4 VXNEOCP033
     Sar2766 KB2024 09 04.89874721 02 12.88 +14 17 15.2    ~94M7 19.5 GXNEOCPI93
     Sar2766 1C2024 09 04.89910 21 02 11.56 +14 17 04.7    ~94Nq 20.4 VXNEOCP033
     Sar2766 1C2024 09 04.89949 21 02 11.89 +14 17 09.7    ~94Nq 20.2 VXNEOCP033
     Sar2766 1C2024 09 04.90059 21 02 12.86 +14 17 25.0    ~94Nq 20.1 VXNEOCP033
     Sar2766 KC2024 09 04.90086221 02 12.80 +14 17 40.9    ~94Mb 19.0 GXNEOCP595
     Sar2766 1C2024 09 04.90124 21 02 13.47 +14 17 34.2    ~94Nq 19.9 VXNEOCP033
     Sar2766 KB2024 09 04.90263321 02 16.30 +14 18 08.6    ~94M7 19.4 GXNEOCPI93
     Sar2766 KB2024 09 04.90645321 02 19.68 +14 19 00.1    ~94M7 20.1 GXNEOCPI93
     Sar2766 KC2024 09 04.91032421 02 21.12 +14 19 49.0    ~94Mb 19.6 GXNEOCP595
     Sar2766 KC2024 09 04.91980721 02 29.46 +14 21 57.5    ~94Mb 19.9 GXNEOCP595
     Sar2766 KC2024 09 04.93768721 02 45.16 +14 26 00.9    ~94N7 19.8 GVNEOCPL01
     Sar2766 KC2024 09 04.93917021 02 46.49 +14 26 21.0    ~94N7 20.1 GVNEOCPL01
     Sar2766 KC2024 09 04.94065421 02 47.80 +14 26 41.1    ~94N7 19.8 GVNEOCPL01
     Sar2766 KC2024 09 04.94213921 02 49.08 +14 27 01.4    ~94N7 19.8 GVNEOCPL01
     Sar2766 KC2024 09 04.94362321 02 50.40 +14 27 20.6    ~94N7 19.6 GVNEOCPL01
     Sar2766 KC2024 09 05.09652921 05 18.39 +15 01 46.0    ~952q 20.5 GVNEOCPH21
     Sar2766 KC2024 09 05.09845921 05 20.07 +15 02 11.6    ~952q 20.4 GVNEOCPH21
     Sar2766 KC2024 09 05.10038921 05 21.75 +15 02 37.6    ~952q 20.4 GVNEOCPH21
     Sar2766 KC2024 09 05.10231821 05 23.44 +15 03 03.3    ~952q 20.5 GVNEOCPH21
     Sar2766 KC2024 09 05.10424721 05 25.12 +15 03 28.9    ~952q 20.7 GVNEOCPH21
     Sar2766 mC2024 09 05.11379621 05 36.950+15 05 45.50   ~9537x      VNEOCPI52
     Sar2766 mC2024 09 05.11413921 05 37.220+15 05 50.40   ~9537       VNEOCPI52
     Sar2766 mC2024 09 05.11448321 05 37.550+15 05 56.40   ~9537 20.42GVNEOCPI52
     Sar2766 KC2024 09 05.14196421 06 00.59 +15 11 58.5    ~9547 19.7 GXNEOCP858
     Sar2766 KC2024 09 05.14655621 06 04.55 +15 12 59.4    ~9547 19.7 GXNEOCP858
     Sar2766 KC2024 09 05.15108421 06 08.46 +15 13 59.6    ~9547 19.7 GXNEOCP858
     Sar2766 !C2024 09 05.36385 21 09 11.80 +16 00 02.6    ~9597 20.5 GVNEOCP673
     Sar2766 !C2024 09 05.36590 21 09 13.52 +16 00 28.3    ~9597       VNEOCP673
     Sar2766 KB2024 09 05.77802 21 15 29.48 +17 25 42.6    ~95JM 19.8 GXNEOCPM45
     Sar2766 KB2024 09 05.78307 21 15 33.68 +17 26 44.4    ~95JM 19.8 GXNEOCPM45
     Sar2766 1C2024 09 05.86115 21 16 39.81 +17 42 14.7    ~95L7 20.0 VXNEOCP033
     Sar2766 1C2024 09 05.86170 21 16 40.27 +17 42 21.2    ~95L7 20.7 VXNEOCP033
     Sar2766 1C2024 09 05.86225 21 16 40.70 +17 42 27.7    ~95L7 20.3 VXNEOCP033
     Sar2766 1C2024 09 05.86289 21 16 41.25 +17 42 35.6    ~95L7 20.6 VXNEOCP033
     Sar2766 1C2024 09 05.86351 21 16 41.74 +17 42 43.2    ~95L7 20.3 VXNEOCP033

Station data:
(033) Karl Schwarzschild Observatory, Tautenburg  (N50.980139 E11.711240)
   Germany.  Observer B. Stecklum. 1.34-m f/3 Schmidt + CCD.
(595) Farra d'Isonzo  (N45.915731 E13.525780)  Italy.  Observers S. Aschi, E.
   Pettarin, G. Panterotto. Measurers S. Aschi, E. Pettarin. 0.40-m f/5.15
   reflector + CCD.
(673) Table Mountain Observatory, Wrightwood  (N34.381485 W117.682170)
   US/California.  Observers J. Chesley, J. Pittichova. Measurer W. M. Owen
   Jr. 0.61-m f/16 reflector + CCD.
(858) Tebbutt Observatory, Edgewood  (N35.093869 W106.220000)  US/New Mexico.
    Observer F. B. Zoltowski. 0.16-m refractor + CCD0.51-m Schmidt-Cassegrain
   + CCD.
(H21) Astronomical Research Observatory, Westfield  (N39.483054 W87.968270)
   US/Illinois.  Observer R. Holmes. Measurers S. Foglia, L. Buzzi, T.
   Linder, R. Holmes. 0.76-m f/3.0 astrograph + CCD0.81-m f/4.0 astrograph +
   CCD0.61-m f/4.5 astrograph + CCD0.40-m f/5.32 astrograph + CCD.
(I52) Steward Observatory, Mt. Lemmon Station  (N32.442570 W110.788920)
   US/Arizona.  Observers T. A. Pruyne, B. M. Africano, E. J. Christensen, G.
   A. Farneth, D. C. Fuls, A. R. Gibbs, A. D. Grauer, H. Gröller, J. A.
   Johnson, R. A. Kowalski, S. M. Larson, G. J. Leonard, D. Rankin, R. L.
   Seaman, F. C. Shelly, K. W. Wierzchoś. 1.0-m prime focus + CCD.
(I93) St Pardon de Conques  (N44.558670 W0.202960)  France.  Observers F.
   Losse, W. D'Anna. Measurer F. Losse. 0.40-m f/3.7 reflector + CCD.
(K88) GINOP-KHK, Piszkéstető  (N47.917453 E19.893670)  Hungary.  Observer K.
   Sárneczky. 0.60-m Schmidt + CCD.
(L01) Višnjan Observatory, Tičan  (N45.290897 E13.749300)  Croatia.
   Observers K. Korlević, D. Pujagic, V. Dobos. Measurers D. Pujagic, K.
   Korlević. 1.0-m f/2.9 reflector + CCD.
(M45) Starhopper Observatory, Sfantu Gheorghe  (N45.865582 E25.768900)
   Romania.  Observer F. Ursache. 0.41-m f/7.5 reflector + CMO.

Orbital elements:  Sar2766
   Perihelion 2024 Aug 21.71945 +/- 0.0164 TT = 17:16:00 (JD 2460544.21945)
Epoch 2024 Sep  5.0 TT = JDT 2460558.5   Earth MOID: 0.0263      AutoNEOCP
M   3.47308352 +/- 0.017            (J2000 ecliptic)
n   0.24320374 +/- 0.00122          Peri.  352.71515 +/- 0.025
a   2.54188488 +/- 0.00853          Node   332.48329 +/- 0.0055
e   0.5927183 +/- 0.00135           Incl.    8.81534 +/- 0.014
P   4.05260                H 25.07  G  0.15   U  8.2
q 1.03526303 +/- 5.39e-5    Q 4.04850673 +/- 0.017
41 of 42 observations 2024 Sept. 4-5 (24.7 hr); mean residual 0".36
Residuals in arcseconds: 
240904 K88  .66+  .96+    240904 I93  .14+  .24-    240905 I52  .31-  1.7-    
240904 K88  .15+  .49+    240904 595  .22-  .34-    240905 I52  .12+  .30-    
240904 K88  .68+  .26-    240904 595  .39-  .40-    240905 858  .12+  .25+    
240904 K88  .43-  .28-    240904 L01  .26-  .20-    240905 858  .09+  .08+    
240904 K88  .12-  .79+    240904 L01  .08+  .11-    240905 858  .20+  .13+    
240904 K88  .36-  .36+    240904 L01  .12+  .02-    240905 673  .48+  .13+    
240904 033  .01-  .11-    240904 L01  .29-  .26+    240905 673  .07-  .14-    
240904 I93  .19-  .06-    240904 L01  .11-  .54-    240905 M45  .28+  .41+    
240904 033  .06+  .08+    240905 H21  .12-  .32+    240905 M45  .30+  .54+    
240904 033  .16-  .23-    240905 H21  .05-  .12+    240905 033  .23-  .19-    
240904 033  .22-  .11+    240905 H21  .03+  .33+    240905 033  .15-  .30-    
240904 595  .02-  .09+    240905 H21  .28+  .27+    240905 033  .51-  .41-    
240904 033  .28+  .46+    240905 H21  .39+  .11+    240905 033  .21-  .20-    
240904 I93  .16-  .33+    240905 I52( .11+  2.0-)   240905 033  .53-  .05-    

Ephemerides (geocentric):
Date (UTC) HH   RA             Dec           delta  r     elong  mag " sig PA
---- --------  ------------   ------------  ------ ------ -----  --- --------
2024 09 06 05  21 21 36.463   +18 51 16.63  .05633 1.0546 145.0 20.3 .224   8
2024 09 06 06  21 22 11.724   +18 59 09.85  .05647 1.0547 145.0 20.3 .236  11
2024 09 06 07  21 22 46.874   +19 07 00.23  .05661 1.0548 145.0 20.3 .248  13
2024 09 06 08  21 23 21.913   +19 14 47.78  .05675 1.0549 145.0 20.3 .262  15
2024 09 06 09  21 23 56.842   +19 22 32.51  .05689 1.0550 145.0 20.4 .276  16
2024 09 06 10  21 24 31.660   +19 30 14.44  .05703 1.0551 144.9 20.4 .291  18
2024 09 06 11  21 25 06.367   +19 37 53.55  .05718 1.0552 144.9 20.4 .306  20
2024 09 06 12  21 25 40.963   +19 45 29.88  .05732 1.0553 144.9 20.4 .323  21
2024 09 06 13  21 26 15.449   +19 53 03.42  .05746 1.0554 144.9 20.4 .340  23
2024 09 06 14  21 26 49.825   +20 00 34.20  .05761 1.0555 144.9 20.4 .357  24
2024 09 06 15  21 27 24.090   +20 08 02.20  .05775 1.0556 144.9 20.4 .376  25
2024 09 06 16  21 27 58.244   +20 15 27.46  .05790 1.0558 144.9 20.4 .395  27
2024 09 06 17  21 28 32.289   +20 22 49.97  .05804 1.0559 144.9 20.4 .414  28
2024 09 06 18  21 29 06.223   +20 30 09.75  .05819 1.0560 144.9 20.4 .435  29
2024 09 06 19  21 29 40.047   +20 37 26.81  .05834 1.0561 144.9 20.4 .456  30
2024 09 06 20  21 30 13.762   +20 44 41.16  .05848 1.0562 144.8 20.4 .477  31
2024 09 06 21  21 30 47.366   +20 51 52.80  .05863 1.0563 144.8 20.4 .499  31
2024 09 06 22  21 31 20.861   +20 59 01.76  .05878 1.0564 144.8 20.4 .522  32
2024 09 06 23  21 31 54.246   +21 06 08.04  .05893 1.0565 144.8 20.4 .545  33
2024 09 07 00  21 32 27.522   +21 13 11.65  .05908 1.0566 144.8 20.4 .568  34
2024 09 07 01  21 33 00.688   +21 20 12.60  .05923 1.0567 144.8 20.4 .593  34
2024 09 07 02  21 33 33.745   +21 27 10.91  .05938 1.0568 144.8 20.5 .617  35
2024 09 07 03  21 34 06.693   +21 34 06.59  .05953 1.0569 144.8 20.5 .642  36
2024 09 07 04  21 34 39.533   +21 40 59.64  .05969 1.0570 144.7 20.5 .668  36
2024 09 07 05  21 35 12.263   +21 47 50.08  .05984 1.0571 144.7 20.5 .694  37
2024 09 07 06  21 35 44.885   +21 54 37.93  .05999 1.0573 144.7 20.5 .720  37
2024 09 07 07  21 36 17.398   +22 01 23.19  .06015 1.0574 144.7 20.5 .747  38
2024 09 07 08  21 36 49.803   +22 08 05.87  .06030 1.0575 144.7 20.5 .775  38
2024 09 07 09  21 37 22.099   +22 14 45.99  .06046 1.0576 144.7 20.5 .803  39
2024 09 07 10  21 37 54.288   +22 21 23.56  .06061 1.0577 144.7 20.5 .831  39
2024 09 07 11  21 38 26.369   +22 27 58.59  .06077 1.0578 144.6 20.5 .859  39
2024 09 07 12  21 38 58.342   +22 34 31.09  .06093 1.0579 144.6 20.5 .888  40
2024 09 07 13  21 39 30.208   +22 41 01.08  .06108 1.0580 144.6 20.5 .918  40
2024 09 07 14  21 40 01.966   +22 47 28.57  .06124 1.0581 144.6 20.5 .947  40
2024 09 07 15  21 40 33.617   +22 53 53.56  .06140 1.0582 144.6 20.5 .978  41
2024 09 07 16  21 41 05.162   +23 00 16.08  .06156 1.0584 144.6 20.5 1.01  41
2024 09 07 17  21 41 36.599   +23 06 36.13  .06172 1.0585 144.5 20.5 1.04  41
2024 09 07 18  21 42 07.930   +23 12 53.73  .06188 1.0586 144.5 20.5 1.07  42
2024 09 07 19  21 42 39.154   +23 19 08.89  .06204 1.0587 144.5 20.6 1.10  42
2024 09 07 20  21 43 10.273   +23 25 21.63  .06220 1.0588 144.5 20.6 1.13  42
2024 09 07 21  21 43 41.285   +23 31 31.94  .06236 1.0589 144.5 20.6 1.16  43
2024 09 07 22  21 44 12.192   +23 37 39.86  .06252 1.0590 144.4 20.6 1.20  43
2024 09 07 23  21 44 42.992   +23 43 45.38  .06268 1.0591 144.4 20.6 1.23  43
2024 09 08 00  21 45 13.688   +23 49 48.53  .06285 1.0593 144.4 20.6 1.26  43
2024 09 08 01  21 45 44.279   +23 55 49.31  .06301 1.0594 144.4 20.6 1.30  44
2024 09 08 02  21 46 14.764   +24 01 47.74  .06317 1.0595 144.4 20.6 1.33  44
2024 09 08 03  21 46 45.145   +24 07 43.83  .06334 1.0596 144.4 20.6 1.36  44
2024 09 08 04  21 47 15.421   +24 13 37.60  .06350 1.0597 144.3 20.6 1.40  44